Regional Weather Roundup
Issued by NWS

Home | Current Version | Previous Version | Graphics & Text | Print | Product List | Glossary On
Versions: 1 2 3 4 5 6 7 8 9 10 11 12 13 14 15 16 17 18 19 20 21 22 23 24 25 26 27 28 29 30 31 32 33 34 35 36 37 38 39 40 41 42 43 44 45 46 47 48 49 50
000
ASUS45 KCYS 230410
RWRWY

WYOMING REGIONAL WEATHER ROUNDUP
NATIONAL WEATHER SERVICE CHEYENNE WY
1000 PM MDT FRI MAY 22 2015

NOTE:  "FAIR" INDICATES FEW OR NO CLOUDS BELOW 12,000 FEET
WITH NO SIGNIFICANT WEATHER AND/OR OBSTRUCTIONS TO VISIBILITY.

WYZ001-230500-
YELLOWSTONE NATIONAL PARK

CITY           SKY/WX    TMP DP  RH WIND       PRES   REMARKS
LK YELLOWSTONE   N/A     42  39  89 NW3       30.03S
W YELLOWSTONE  NOT AVBL

$$
WYZ002>013-054>058-071-098>099-230500-
NORTHERN WYOMING

CITY           SKY/WX    TMP DP  RH WIND       PRES   REMARKS
JACKSON        MOCLDY    45  43  93 SW6       29.98R
CODY           CLOUDY    50  46  87 S6        29.96R
GREYBULL       CLOUDY    57  51  80 NW12      29.92R
WORLAND        CLOUDY    55  47  74 CALM      29.92R
SHERIDAN       CLOUDY    52  45  77 SE23G33   29.94S
BUFFALO        CLOUDY    48  46  93 SE13      30.01S
GILLETTE       FAIR      47  41  80 SE13      30.03R
HULETT         FAIR      46  41  81 S7        30.05R
NEWCASTLE      FAIR      45  39  81 SE12      30.07S

$$
WYZ014>020-022>026-101>103-230500-
CENTRAL WYOMING

CITY           SKY/WX    TMP DP  RH WIND       PRES   REMARKS
BIG PINEY      LGT RAIN  43  41  93 S5        30.00R
PINEDALE       RAIN      41  41 100 E3        30.01R
DUBOIS         CLOUDY    43  37  81 SE10G16   29.99R
LANDER         LGT RAIN  47  45  93 W8        29.94R
RIVERTON       LGT RAIN  50  47  89 NE8       29.95S
CASPER         LGT RAIN  45  43  93 E14       29.98R
DOUGLAS        LGT RAIN  46  44  93 SE16      30.03S

$$
WYZ021-027>030-104>119-230500-
SOUTHERN WYOMING

CITY           SKY/WX    TMP DP  RH WIND       PRES   REMARKS
EVANSTON       CLOUDY    41  38  89 SE3       30.00S
KEMMERER       DRIZZLE   41  37  87 W3        30.01S
FORT BRIDGER   CLOUDY    43  43 100 W5        30.03S
ROCK SPRINGS   FAIR      42  40  92 SW7       29.98S
DIXON          FAIR      44  39  81 E6        30.03R
RAWLINS        FAIR      42  38  85 E3        30.00R
SARATOGA       FAIR      41  37  87 S5        30.02R
LARAMIE        FAIR      40  37  89 SE15      30.02R WCI  32
CHEYENNE       CLOUDY    45  43  93 SE16      30.03F FOG
TORRINGTON     CLOUDY    46  45  96 SE16      30.05R
PINE BLUFFS    CLOUDY    43  43 100 E10       30.07S

$$



USA.gov is the U.S. government's official web portal to all federal, state and local government web resources and services.